Flag for U.S.A. Weather past 2 weeks in Vista, California, U.S.A.

Now
69 °F

Passing clouds.


Feels Like: 69 °F
Forecast: 64 / 79 °F
Wind: No wind

Location: McClellan-Palomar Airport

Current Time: Aug 21, 2014 at 11:36:31 PM

Latest Report: Aug 21, 2014 at 10:53 PM


Visibility: 10 mi

Pressure: 29.94 "Hg

Humidity: 84%

Dew point: 64 °F

Location of VistaLocation

Historic Weather in Vista — Graph

°F

Vista temperature yesterday

Maximum temperature yesterday: 73 °F (at 1:53 PM)
Minimum temperature yesterday: 66 °F (at 7:53 AM)
Average temperature yesterday: 70 °F

Past Weeks' High & Low Weather Summary

 TemperatureHumidityPressure
High80 °F (Aug 16, 12:53 PM)88% (Aug 10, 8:00 AM)29.99 "Hg (Aug 10, 8:00 AM)
Low66 °F (Aug 10, 4:53 AM)52% (Aug 16, 12:53 PM)29.80 "Hg (Aug 18, 3:53 PM)
Average71 °F74%29.92 "Hg
* Reported Aug 6 9:53 PM — Aug 21 9:53 PM, Vista, Weather by CustomWeather, © 2014

Note: Actual official high and low records may vary slightly from our data, if they occured in-between our weather recording intervals... More about our weather records

Advertising

Vista weather history for previous 24 hours

 ConditionsComfort  
Time TempWeatherWind HumidityBarometerVisibility
9:53 PM
Aug 21
69 °FPassing clouds.No wind81%29.94 "Hg10 mi
8:53 PM70 °FClear.3 mph79%29.93 "Hg10 mi
7:53 PM70 °FScattered clouds.3 mph76%29.92 "Hg10 mi
6:53 PM71 °FScattered clouds.3 mph76%29.92 "Hg10 mi
5:53 PM72 °FSunny.8 mph73%29.89 "Hg10 mi
4:53 PM74 °FSunny.8 mph67%29.88 "Hg10 mi
3:53 PM74 °FSunny.9 mph69%29.89 "Hg10 mi
2:53 PM73 °FSunny.7 mph71%29.89 "Hg10 mi
1:53 PM74 °FPassing clouds.9 mph67%29.91 "Hg10 mi
12:53 PM74 °FSunny.10 mph69%29.92 "Hg10 mi
11:53 AM74 °FScattered clouds.8 mph69%29.94 "Hg10 mi
10:53 AM73 °FScattered clouds.6 mph69%29.95 "Hg10 mi
9:53 AM72 °FScattered clouds.No wind71%29.95 "Hg10 mi
8:53 AM70 °FOvercast.No wind76%29.94 "Hg10 mi
7:53 AM69 °FOvercast.No wind79%29.93 "Hg10 mi
6:53 AM68 °FOvercast.3 mph82%29.91 "Hg10 mi
5:53 AM69 °FOvercast.No wind79%29.89 "Hg10 mi
4:53 AM69 °FOvercast.3 mph79%29.89 "Hg10 mi
3:53 AM69 °FOvercast.No wind79%29.90 "Hg10 mi
3:02 AM70 °FOvercast.No wind78%29.92 "Hg10 mi
2:53 AM69 °FOvercast.3 mph79%29.91 "Hg10 mi
1:53 AM69 °FOvercast.No wind81%29.91 "Hg10 mi
12:53 AM69 °FOvercast.3 mph81%29.92 "Hg10 mi
11:53 PM
Aug 20
69 °FPassing clouds.No wind79%29.91 "Hg10 mi
Weather by CustomWeather, © 2014

See weather overviewHow to use our weather pages